Time,TemperatureF,DewpointF,PressureIn,WindDirection,WindDirectionDegrees,WindSpeedMPH,WindSpeedGustMPH,Humidity,HourlyPrecipIn,Conditions,Clouds,dailyrainin,SoftwareType,DateUTC
2013-04-12 00:02:00,47.0,45.0,29.41,WSW,250,5.0,7.0,91,0.00,,,0.38,,2013-04-11 23:02:00,
2013-04-12 00:23:00,46.0,44.0,29.41,WSW,247,2.0,7.0,91,0.00,,,0.38,,2013-04-11 23:23:00,
2013-04-12 00:33:00,46.0,44.0,29.41,WSW,247,1.0,3.0,91,0.00,,,0.38,,2013-04-11 23:33:00,
2013-04-12 00:43:00,46.0,44.0,29.41,WSW,247,1.0,3.0,91,0.00,,,0.38,,2013-04-11 23:43:00,
2013-04-12 00:53:00,46.0,44.0,29.41,WSW,248,1.0,5.0,92,0.00,,,0.38,,2013-04-11 23:53:00,
2013-04-12 01:02:00,46.0,44.0,29.41,WSW,248,1.0,5.0,92,0.00,,,0.38,,2013-04-12 00:02:00,
2013-04-12 01:11:00,46.0,44.0,29.41,WSW,248,1.0,5.0,92,0.00,,,0.38,,2013-04-12 00:11:00,
2013-04-12 01:21:00,47.0,45.0,29.40,West,265,6.0,10.0,93,0.00,,,0.38,,2013-04-12 00:21:00,
2013-04-12 01:32:00,47.0,45.0,29.40,West,265,6.0,10.0,93,0.00,,,0.38,,2013-04-12 00:32:00,
2013-04-12 01:43:00,47.0,45.0,29.40,West,265,6.0,10.0,93,0.00,,,0.38,,2013-04-12 00:43:00,
2013-04-12 01:52:00,47.0,45.0,29.40,West,273,7.0,12.0,92,0.00,,,0.38,,2013-04-12 00:52:00,
2013-04-12 02:02:00,47.0,45.0,29.40,West,273,7.0,12.0,92,0.00,,,0.38,,2013-04-12 01:02:00,
2013-04-12 02:12:00,47.0,45.0,29.40,West,273,7.0,12.0,92,0.00,,,0.38,,2013-04-12 01:12:00,
2013-04-12 02:21:00,46.0,44.0,29.38,WSW,256,2.0,7.0,92,0.00,,,0.37,,2013-04-12 01:21:00,
2013-04-12 02:22:00,46.0,44.0,29.39,SW,235,3.0,12.0,91,0.00,,,0.38,,2013-04-12 01:22:00,
2013-04-12 02:32:00,46.0,44.0,29.39,SW,235,3.0,12.0,91,0.00,,,0.38,,2013-04-12 01:32:00,
2013-04-12 02:42:00,46.0,44.0,29.39,SW,235,3.0,12.0,91,0.00,,,0.38,,2013-04-12 01:42:00,
2013-04-12 02:52:00,46.0,44.0,29.38,WSW,256,2.0,7.0,92,0.00,,,0.37,,2013-04-12 01:52:00,
2013-04-12 03:02:00,46.0,44.0,29.38,WSW,256,2.0,7.0,92,0.00,,,0.37,,2013-04-12 02:02:00,
2013-04-12 03:12:00,46.0,44.0,29.38,WSW,256,2.0,7.0,92,0.00,,,0.37,,2013-04-12 02:12:00,
2013-04-12 03:52:00,45.0,43.0,29.36,SW,227,6.0,10.0,92,0.00,,,0.28,,2013-04-12 02:52:00,
2013-04-12 04:02:00,45.0,43.0,29.36,SW,227,6.0,10.0,92,0.00,,,0.28,,2013-04-12 03:02:00,
2013-04-12 04:12:00,45.0,43.0,29.36,SW,227,6.0,10.0,92,0.00,,,0.28,,2013-04-12 03:12:00,
2013-04-12 04:21:00,44.0,42.0,29.34,SSW,194,2.0,7.0,93,0.00,,,0.25,,2013-04-12 03:21:00,
2013-04-12 04:22:00,44.0,42.0,29.35,SW,217,2.0,8.0,93,0.00,,,0.27,,2013-04-12 03:22:00,
2013-04-12 04:32:00,44.0,42.0,29.35,SW,217,2.0,8.0,93,0.00,,,0.27,,2013-04-12 03:32:00,
2013-04-12 04:43:00,44.0,42.0,29.35,SW,217,2.0,8.0,93,0.00,,,0.27,,2013-04-12 03:43:00,
2013-04-12 04:53:00,44.0,42.0,29.34,SSW,194,2.0,7.0,93,0.00,,,0.25,,2013-04-12 03:53:00,
2013-04-12 05:02:00,44.0,42.0,29.34,SSW,194,2.0,7.0,93,0.00,,,0.25,,2013-04-12 04:02:00,
2013-04-12 05:13:00,44.0,42.0,29.34,SSW,194,2.0,7.0,93,0.00,,,0.25,,2013-04-12 04:13:00,
2013-04-12 06:23:00,46.0,44.0,29.30,SW,229,6.0,13.0,93,0.06,,,0.25,,2013-04-12 05:23:00,
2013-04-12 06:31:00,45.0,43.0,29.29,SSW,194,3.0,12.0,93,0.07,,,0.27,,2013-04-12 05:31:00,
2013-04-12 06:32:00,46.0,44.0,29.30,SW,229,6.0,13.0,93,0.06,,,0.25,,2013-04-12 05:32:00,
2013-04-12 06:42:00,46.0,44.0,29.30,SW,229,6.0,13.0,93,0.06,,,0.25,,2013-04-12 05:42:00,
2013-04-12 06:52:00,45.0,43.0,29.29,SSW,194,3.0,12.0,93,0.07,,,0.27,,2013-04-12 05:52:00,
2013-04-12 07:01:00,45.0,43.0,29.29,SSW,194,3.0,12.0,93,0.07,,,0.27,,2013-04-12 06:01:00,
2013-04-12 07:12:00,45.0,43.0,29.29,SSW,194,3.0,12.0,93,0.07,,,0.27,,2013-04-12 06:12:00,
2013-04-12 07:22:00,45.0,43.0,29.29,SSW,194,3.0,12.0,93,0.07,,,0.27,,2013-04-12 06:22:00,
2013-04-12 07:52:00,46.0,44.0,29.28,SW,231,3.0,8.0,94,0.03,,,0.24,,2013-04-12 06:52:00,
2013-04-12 08:01:00,46.0,44.0,29.28,SW,221,3.0,7.0,94,0.02,,,0.24,,2013-04-12 07:01:00,
2013-04-12 08:11:00,46.0,44.0,29.28,SW,221,3.0,7.0,94,0.02,,,0.24,,2013-04-12 07:11:00,
2013-04-12 08:22:00,46.0,44.0,29.28,SW,221,3.0,7.0,94,0.02,,,0.24,,2013-04-12 07:22:00,
2013-04-12 08:31:00,47.0,45.0,29.28,West,281,9.0,14.0,94,0.02,,,0.20,,2013-04-12 07:31:00,
2013-04-12 08:32:00,47.0,45.0,29.27,WSW,242,1.0,9.0,94,0.02,,,0.22,,2013-04-12 07:32:00,
2013-04-12 08:42:00,47.0,45.0,29.27,WSW,242,1.0,9.0,94,0.02,,,0.22,,2013-04-12 07:42:00,
2013-04-12 08:52:00,47.0,45.0,29.28,West,281,9.0,14.0,94,0.02,,,0.20,,2013-04-12 07:52:00,
2013-04-12 09:02:00,47.0,45.0,29.28,West,281,9.0,14.0,94,0.02,,,0.20,,2013-04-12 08:02:00,
2013-04-12 09:11:00,47.0,45.0,29.28,West,281,9.0,14.0,94,0.02,,,0.20,,2013-04-12 08:11:00,
2013-04-12 09:21:00,47.0,45.0,29.28,West,264,11.0,20.0,92,0.00,,,0.17,,2013-04-12 08:21:00,
2013-04-12 09:22:00,47.0,45.0,29.28,West,281,9.0,14.0,94,0.02,,,0.20,,2013-04-12 08:22:00,
2013-04-12 09:52:00,47.0,45.0,29.28,West,264,11.0,20.0,92,0.00,,,0.17,,2013-04-12 08:52:00,
2013-04-12 10:02:00,47.0,45.0,29.28,West,264,11.0,20.0,92,0.00,,,0.17,,2013-04-12 09:02:00,
2013-04-12 10:11:00,49.0,47.0,29.30,WSW,258,7.0,15.0,94,0.00,,,0.16,,2013-04-12 09:11:00,
2013-04-12 10:12:00,47.0,45.0,29.28,West,264,11.0,20.0,92,0.00,,,0.17,,2013-04-12 09:12:00,
2013-04-12 10:33:00,49.0,47.0,29.30,WSW,258,7.0,15.0,94,0.00,,,0.16,,2013-04-12 09:33:00,
2013-04-12 10:44:00,49.0,47.0,29.30,WSW,258,7.0,15.0,94,0.00,,,0.16,,2013-04-12 09:44:00,
2013-04-12 10:53:00,49.0,47.0,29.30,WSW,258,7.0,15.0,94,0.00,,,0.16,,2013-04-12 09:53:00,
2013-04-12 11:02:00,49.0,47.0,29.30,WSW,258,7.0,15.0,94,0.00,,,0.16,,2013-04-12 10:02:00,
2013-04-12 12:02:00,49.0,46.0,29.33,WNW,283,9.0,18.0,90,0.02,,,0.15,,2013-04-12 11:02:00,
2013-04-12 12:12:00,49.0,46.0,29.33,WNW,283,9.0,18.0,90,0.02,,,0.15,,2013-04-12 11:12:00,
2013-04-12 12:22:00,49.0,46.0,29.33,WNW,283,9.0,18.0,90,0.02,,,0.15,,2013-04-12 11:22:00,
2013-04-12 12:32:00,51.0,48.0,29.34,NW,320,7.0,15.0,90,0.02,,,0.14,,2013-04-12 11:32:00,
2013-04-12 12:41:00,51.0,48.0,29.36,NW,316,8.0,15.0,89,0.00,,,0.14,,2013-04-12 11:41:00,
2013-04-12 12:42:00,51.0,48.0,29.34,NW,320,7.0,15.0,90,0.02,,,0.14,,2013-04-12 11:42:00,
2013-04-12 12:52:00,50.0,47.0,29.35,NW,308,10.0,18.0,88,0.01,,,0.14,,2013-04-12 11:52:00,
2013-04-12 13:02:00,51.0,48.0,29.36,NW,316,8.0,15.0,89,0.00,,,0.14,,2013-04-12 12:02:00,
2013-04-12 13:12:00,51.0,48.0,29.36,NW,316,8.0,15.0,89,0.00,,,0.14,,2013-04-12 12:12:00,
2013-04-12 13:22:00,51.0,48.0,29.36,NW,316,8.0,15.0,89,0.00,,,0.14,,2013-04-12 12:22:00,
2013-04-12 13:32:00,51.0,48.0,29.36,NW,316,8.0,15.0,89,0.00,,,0.14,,2013-04-12 12:32:00,
2013-04-12 13:53:00,52.0,46.0,29.38,NNW,347,10.0,22.0,81,0.01,,,0.14,,2013-04-12 12:53:00,
2013-04-12 14:01:00,51.0,47.0,29.39,NNW,340,8.0,20.0,86,0.02,,,0.15,,2013-04-12 13:01:00,
2013-04-12 14:03:00,52.0,46.0,29.38,NNW,347,10.0,22.0,81,0.01,,,0.14,,2013-04-12 13:03:00,
2013-04-12 14:12:00,52.0,46.0,29.38,NNW,347,10.0,22.0,81,0.01,,,0.14,,2013-04-12 13:12:00,
2013-04-12 14:21:00,51.0,47.0,29.39,NNW,340,8.0,20.0,86,0.02,,,0.15,,2013-04-12 13:21:00,
2013-04-12 14:32:00,51.0,47.0,29.39,NNW,340,8.0,20.0,86,0.02,,,0.15,,2013-04-12 13:32:00,
2013-04-12 14:43:00,51.0,47.0,29.39,NNW,340,8.0,20.0,86,0.02,,,0.15,,2013-04-12 13:43:00,
2013-04-12 14:53:00,51.0,47.0,29.39,NNW,340,8.0,20.0,86,0.02,,,0.15,,2013-04-12 13:53:00,
2013-04-12 15:01:00,52.0,46.0,29.42,NW,313,8.0,21.0,79,0.01,,,0.15,,2013-04-12 14:01:00,
2013-04-12 15:23:00,52.0,46.0,29.42,NW,313,8.0,21.0,79,0.01,,,0.15,,2013-04-12 14:23:00,
2013-04-12 15:33:00,52.0,46.0,29.42,NW,313,8.0,21.0,79,0.01,,,0.15,,2013-04-12 14:33:00,
2013-04-12 15:42:00,52.0,46.0,29.42,NW,313,8.0,21.0,79,0.01,,,0.15,,2013-04-12 14:42:00,
2013-04-12 15:53:00,52.0,46.0,29.42,NW,313,8.0,21.0,79,0.01,,,0.15,,2013-04-12 14:53:00,
2013-04-12 16:21:00,52.0,47.0,29.47,NNW,330,9.0,15.0,83,0.00,,,0.15,,2013-04-12 15:21:00,
2013-04-12 16:22:00,51.0,47.0,29.46,NNW,329,7.0,17.0,85,0.00,,,0.15,,2013-04-12 15:22:00,
2013-04-12 16:33:00,51.0,47.0,29.46,NNW,329,7.0,17.0,85,0.00,,,0.15,,2013-04-12 15:33:00,
2013-04-12 16:43:00,51.0,47.0,29.46,NNW,329,7.0,17.0,85,0.00,,,0.15,,2013-04-12 15:43:00,
2013-04-12 16:53:00,52.0,47.0,29.47,NNW,330,9.0,15.0,83,0.00,,,0.15,,2013-04-12 15:53:00,
2013-04-12 17:03:00,52.0,47.0,29.47,NNW,330,9.0,15.0,83,0.00,,,0.15,,2013-04-12 16:03:00,
2013-04-12 17:13:00,52.0,47.0,29.47,NNW,330,9.0,15.0,83,0.00,,,0.15,,2013-04-12 16:13:00,
2013-04-12 17:53:00,54.0,47.0,29.51,North,11,7.0,14.0,78,0.00,,,0.15,,2013-04-12 16:53:00,
2013-04-12 18:03:00,54.0,47.0,29.51,North,11,7.0,14.0,78,0.00,,,0.15,,2013-04-12 17:03:00,
2013-04-12 18:12:00,54.0,47.0,29.51,North,11,7.0,14.0,78,0.00,,,0.15,,2013-04-12 17:12:00,
2013-04-12 18:22:00,53.0,45.0,29.54,NE,37,7.0,14.0,74,0.00,,,0.15,,2013-04-12 17:22:00,
2013-04-12 18:34:00,53.0,45.0,29.54,NE,37,7.0,14.0,74,0.00,,,0.15,,2013-04-12 17:34:00,
2013-04-12 18:46:00,53.0,45.0,29.54,NE,37,7.0,14.0,74,0.00,,,0.15,,2013-04-12 17:46:00,
2013-04-12 19:01:00,49.0,45.0,29.56,North,4,6.0,16.0,87,0.06,,,0.20,,2013-04-12 18:01:00,
2013-04-12 19:14:00,49.0,45.0,29.56,North,4,6.0,16.0,87,0.06,,,0.20,,2013-04-12 18:14:00,
2013-04-12 19:25:00,49.0,46.0,29.57,NNW,331,2.0,9.0,91,0.06,,,0.21,,2013-04-12 18:25:00,
2013-04-12 20:01:00,48.0,45.0,29.61,NW,325,2.0,18.0,90,0.02,,,0.24,,2013-04-12 19:01:00,
2013-04-12 20:33:00,48.0,45.0,29.61,NW,325,2.0,18.0,90,0.02,,,0.24,,2013-04-12 19:33:00,
2013-04-12 20:43:00,48.0,45.0,29.61,NW,325,2.0,18.0,90,0.02,,,0.24,,2013-04-12 19:43:00,
2013-04-12 20:52:00,48.0,45.0,29.61,NW,325,2.0,18.0,90,0.02,,,0.24,,2013-04-12 19:52:00,
2013-04-12 21:22:00,48.0,45.0,29.65,North,7,1.0,8.0,90,0.02,,,0.26,,2013-04-12 20:22:00,
2013-04-12 21:33:00,48.0,45.0,29.65,North,7,1.0,8.0,90,0.02,,,0.26,,2013-04-12 20:33:00,
2013-04-12 21:43:00,48.0,45.0,29.65,North,7,1.0,8.0,90,0.02,,,0.26,,2013-04-12 20:43:00,
2013-04-12 21:52:00,48.0,45.0,29.65,North,7,1.0,8.0,90,0.02,,,0.26,,2013-04-12 20:52:00,
2013-04-12 22:01:00,48.0,45.0,29.65,North,7,1.0,8.0,90,0.02,,,0.26,,2013-04-12 21:01:00,
2013-04-12 22:22:00,47.0,45.0,29.67,WNW,298,1.0,3.0,91,0.00,,,0.26,,2013-04-12 21:22:00,
2013-04-12 22:33:00,47.0,45.0,29.67,WNW,298,1.0,3.0,91,0.00,,,0.26,,2013-04-12 21:33:00,
2013-04-12 22:43:00,47.0,45.0,29.67,WNW,298,1.0,3.0,91,0.00,,,0.26,,2013-04-12 21:43:00,
2013-04-12 22:52:00,46.0,44.0,29.68,WNW,290,4.0,6.0,91,0.00,,,0.26,,2013-04-12 21:52:00,
2013-04-12 23:02:00,46.0,44.0,29.68,WNW,290,4.0,6.0,91,0.00,,,0.26,,2013-04-12 22:02:00,
2013-04-12 23:12:00,46.0,44.0,29.68,WNW,290,4.0,6.0,91,0.00,,,0.26,,2013-04-12 22:12:00,
2013-04-12 23:22:00,45.0,43.0,29.70,NW,311,5.0,12.0,92,0.00,,,0.26,,2013-04-12 22:22:00,
2013-04-12 23:33:00,45.0,43.0,29.70,NW,311,5.0,12.0,92,0.00,,,0.26,,2013-04-12 22:33:00,
2013-04-12 23:43:00,45.0,43.0,29.70,NW,311,5.0,12.0,92,0.00,,,0.26,,2013-04-12 22:43:00,
2013-04-12 23:52:00,45.0,43.0,29.71,NW,311,6.0,12.0,91,0.00,,,0.26,,2013-04-12 22:52:00,